Location: Kosice
(48.7167°N, 21.2500°E)
Time: 16:44:17
(UTC+01:00)

ISS - Visible Passes

Search period start: 24 January 2021 00:00
Search period end: 03 February 2021 00:00
Orbit: 418 x 421 km, 51.6° (Epoch: 24 January)

Date Brightness Start Highest point End Pass type
(mag) Time Alt. Az. Time Alt. Az. Time Alt. Az.
24 Jan -3.5 17:10:14 10° SW 17:13:35 62° SSE 17:16:27 13° ENE visible
24 Jan -2.2 18:47:09 10° W 18:49:25 35° WNW 18:49:25 35° WNW visible
25 Jan -3.5 17:59:41 10° W 18:03:03 60° NNW 18:04:00 40° NE visible
25 Jan -0.2 19:36:49 10° WNW 19:36:58 11° WNW 19:36:58 11° WNW visible
26 Jan -3.7 17:12:14 10° WSW 17:15:37 74° NNW 17:18:34 13° ENE visible
26 Jan -2.1 18:49:23 10° WNW 18:51:32 33° NW 18:51:32 33° NW visible
27 Jan -3.3 18:01:55 10° W 18:05:13 49° N 18:06:05 38° NE visible
27 Jan -0.2 19:38:54 10° WNW 19:39:04 11° WNW 19:39:04 11° WNW visible
28 Jan -3.3 17:14:25 10° W 17:17:44 52° N 17:20:39 13° ENE visible
28 Jan -2.2 18:51:28 10° WNW 18:53:37 34° NW 18:53:37 34° NW visible
29 Jan -3.4 18:04:02 10° WNW 18:07:22 53° N 18:08:11 41° ENE visible
29 Jan -0.3 19:40:54 10° WNW 19:41:09 12° WNW 19:41:09 12° WNW visible
30 Jan -3.3 17:16:33 10° WNW 17:19:52 49° N 17:22:47 13° ENE visible
30 Jan -2.4 18:53:28 10° WNW 18:55:46 40° WNW 18:55:46 40° WNW visible
31 Jan -3.8 18:06:01 10° WNW 18:09:25 76° NNE 18:10:25 42° E visible
31 Jan -0.3 19:43:05 10° W 19:43:24 12° W 19:43:24 12° W visible
01 Feb -3.6 17:18:34 10° WNW 17:21:56 61° NNE 17:25:08 11° E visible
01 Feb -2.4 18:55:29 10° WNW 18:58:08 37° WSW 18:58:08 37° WSW visible
02 Feb -3.3 18:07:57 10° WNW 18:11:17 59° SSW 18:12:57 26° SE visible
